Погода в Бониту

Бразилия     11°57′55″S   41°16′23″W
темп.,
°C
ветер,
м/с
пор.,
м/с
влажн.,
%
обл.,
%
осадки,
мм/ч
давл.,
гПа
погр.,
м
27 февраля, сб
сб2700:00+17в2894100 0.0 1013313
03:00+18вюв2696100 0.0 1012358
06:00+18вюв3795100 0.1 1014413
09:00+21вюв3680100 0.1 1015640
12:00+26вюв3458100 0.2 10131288
15:00+27вюв4549100 0.4 10091859
18:00+21в267639 0.1 1010181
21:00+19в2109169 0.5 1012453
28 февраля, вс
вс2800:00+17вюв2899100 0.3 1013450
03:00+18вюв3898100 0.3 1012561
06:00+17вюв27100100 0.1 1013371
09:00+21вюв467685 0.2 1014743
12:00+27вюв454850 0.0 10111271
15:00+27вюв454732 0.0 10081714
18:00+22юв267397 0.1 1008220
21:00+19юв298998 0.1 1011332
1 марта, пн
пн100:00+18юв2899100 0.2 1012433
03:00+18вюв3797100 0.3 1010426
06:00+18вюв389898 0.3 1012511
09:00+21вюв368099 0.4 1013778
12:00+25юв4557100 0.1 10111180
15:00+27вюв465468 0.1 10081390
18:00+20юв399128 0.6 1009513
21:00+19вюв4109863 1.3 1012765
2 марта, вт
вт200:00+18вюв3997100 0.3 1013671
03:00+18вюв3898100 0.8 1012573
06:00+17юв4998100 0.5 1013564
09:00+20вюв478697 0.8 1015742
12:00+26вюв464410 0.0 10131322
15:00+27вюв474732 0.0 10101502
18:00+22в38757 0.0 1010425
21:00+19вюв3119625 0.5 1014700
3 марта, ср
ср300:00+16вюв299733 0.0 1016443
03:00+16вюв389657 0.0 1015505
06:00+16вюв279593 0.1 1016508
09:00+21вюв366561 0.1 1017753
12:00+27вюв33380 0.0 10151327
15:00+28юв32420 0.0 10111735
18:00+22в25640 0.0 1011159
21:00+20в311800 0.0 1014528